Stations météo

réclame
Mon MeteoGroup
Parkalompolo, Suède (2072): Température de l'air & dewpoint: 12.09.2019 11:00:00 - 18.09.2019 11:00:00 (CEST)Parkalompolo, Suède (2072): Vitesse du vent & gusts: 12.09.2019 11:00:00 - 18.09.2019 11:00:00 (CEST)Parkalompolo, Suède (2072): Direction du vent: 12.09.2019 11:00:00 - 18.09.2019 11:00:00 (CEST)Parkalompolo, Suède (2072): reduced air pressure: 12.09.2019 11:00:00 - 18.09.2019 11:00:00 (CEST)Parkalompolo, Suède (2072): visibility: 12.09.2019 11:00:00 - 18.09.2019 11:00:00 (CEST)Parkalompolo, Suède (2072): Quantités de précipitations: 12.09.2019 11:00:00 - 18.09.2019 11:00:00 (CEST)
Date & Time tt [°C] td [°C] ff [km/h] ff [knt] fx [km/h] fx [knt] dd ppp [hPa] vv [km] rr [mm]
18.09.2019 11:00:00 - - - - - - - - - -
18.09.2019 10:00:00 3,0 -0,5 0 0 5 3 N 1009,6 30 -
18.09.2019 09:00:00 2,4 -1,6 0 0 3 1 N 1009,3 50 0,0
18.09.2019 08:00:00 1,0 -2,1 0 0 5 3 N 1009,0 50 0,0
18.09.2019 07:00:00 -0,6 -3,0 3 2 6 4 N 1008,8 40 0,0
18.09.2019 06:00:00 -2,4 -4,7 3 2 5 3 N 1008,8 50 0,0
18.09.2019 05:00:00 -2,6 -5,2 0 0 4 2 N 1008,7 47 0,0
18.09.2019 04:00:00 -2,7 -4,9 4 2 7 4 NNW 1008,5 45 0,0
18.09.2019 03:00:00 -2,3 -4,3 5 3 7 4 NNW 1008,3 43 0,0
18.09.2019 02:00:00 -1,7 -3,7 4 2 6 4 NNW 1008,2 44 0,0
18.09.2019 01:00:00 -0,4 -2,6 5 3 7 4 NNW 1007,9 50 0,0
18.09.2019 00:00:00 1,0 -1,9 5 3 10 5 N 1007,6 50 0,0
17.09.2019 23:00:00 2,1 -1,5 5 3 10 5 NE 1007,2 50 0,0
17.09.2019 22:00:00 2,7 -0,9 5 3 8 4 NNE 1006,8 50 0,0
17.09.2019 21:00:00 2,8 -0,5 5 3 9 5 N 1006,4 47 0,0
17.09.2019 20:00:00 3,1 0,0 6 3 8 4 N 1005,8 27 0,0
17.09.2019 19:00:00 3,7 0,2 5 3 14 7 N 1005,4 49 0,0
17.09.2019 18:00:00 4,9 1,0 7 4 13 7 N 1005,2 45 0,0
17.09.2019 17:00:00 4,9 0,8 6 3 27 15 NNE 1004,7 46 0,0
17.09.2019 16:00:00 5,5 1,2 10 5 21 11 N 1004,3 46 0,0
17.09.2019 15:00:00 5,3 1,6 9 5 17 9 NE 1004,1 50 0,0
17.09.2019 14:00:00 5,3 2,0 10 5 20 11 NNE 1003,8 50 0,1
17.09.2019 13:00:00 4,5 1,9 15 8 26 14 NE 1003,5 12 0,0
17.09.2019 12:00:00 4,8 2,5 13 7 22 12 NE 1003,0 43 0,1
17.09.2019 11:00:00 4,8 2,5 14 7 27 14 ENE 1002,5 24 0,2
17.09.2019 10:00:00 4,5 2,7 12 6 24 13 NNE 1001,9 20 0,4
17.09.2019 09:00:00 4,6 3,1 12 7 21 12 NNE 1001,3 22 0,0
17.09.2019 08:00:00 4,0 2,7 11 6 19 11 NNE 1000,8 3,4 0,3
17.09.2019 07:00:00 3,6 2,1 12 6 20 11 NNE 1000,5 6 0,0
17.09.2019 06:00:00 3,3 1,8 8 4 23 12 N 1000,4 4,0 0,0
17.09.2019 05:00:00 3,1 1,5 13 7 21 11 N 1000,3 50 0,0
17.09.2019 04:00:00 3,0 1,2 10 5 22 12 N 1000,2 37 0,0
17.09.2019 03:00:00 3,2 1,2 10 6 17 9 N 1000,1 50 0,0
17.09.2019 02:00:00 3,2 0,9 9 5 16 9 N 1000,1 50 0,0
17.09.2019 01:00:00 3,0 0,9 8 4 16 9 N 1000,1 50 0,0
17.09.2019 00:00:00 3,2 0,9 9 5 16 9 N 999,9 50 0,0
16.09.2019 23:00:00 3,9 1,6 9 5 17 9 N 999,6 50 0,0
16.09.2019 22:00:00 3,7 1,4 8 4 18 10 N 999,4 50 0,0
16.09.2019 21:00:00 4,4 1,9 11 6 19 10 NNE 999,2 50 0,0
16.09.2019 20:00:00 4,7 2,4 8 5 19 10 NNE 998,9 50 0,0
16.09.2019 19:00:00 4,8 3,0 8 5 14 7 NNE 998,6 50 0,0
16.09.2019 18:00:00 5,9 3,7 7 4 18 10 NNE 998,3 50 0,1
16.09.2019 17:00:00 6,1 3,9 9 5 19 10 N 998,1 50 0,0
16.09.2019 16:00:00 5,9 3,9 10 5 18 10 N 998,0 46 0,3
16.09.2019 15:00:00 5,5 3,5 7 4 17 9 N 998,0 40 0,2
16.09.2019 14:00:00 4,8 2,8 11 6 22 12 N 998,0 19 0,2
16.09.2019 13:00:00 4,4 2,1 10 5 21 11 N 997,9 19 0,1
16.09.2019 12:00:00 - - - - - - - - - -
16.09.2019 11:00:00 3,4 1,0 12 6 31 17 N 997,6 36 0,1
16.09.2019 10:00:00 2,8 0,5 13 7 29 16 N 997,4 29 0,0
16.09.2019 09:00:00 3,1 -0,5 14 7 26 14 N 997,2 50 0,0
16.09.2019 08:00:00 1,8 -1,3 9 5 19 10 NNW 997,5 43 0,0
16.09.2019 07:00:00 -0,1 -2,3 8 4 11 6 NNW 997,7 42 0,0
16.09.2019 06:00:00 -1,1 -3,3 6 4 12 7 N 997,8 43 0,0
16.09.2019 05:00:00 -1,3 -3,5 6 3 13 7 N 997,8 50 0,0
16.09.2019 04:00:00 -0,9 -3,6 8 4 13 7 NNW 997,8 50 0,0
16.09.2019 03:00:00 -0,7 -3,7 6 3 10 5 N 997,6 50 0,0
16.09.2019 02:00:00 0,4 -3,2 6 4 13 7 NNE 997,5 50 0,0
16.09.2019 01:00:00 0,7 -3,0 8 4 14 8 NNE 997,4 50 0,0
16.09.2019 00:00:00 1,4 -2,2 9 5 15 8 NNE 997,0 50 0,0
15.09.2019 23:00:00 1,3 -2,3 6 4 13 7 NNE 996,7 50 0,0
15.09.2019 22:00:00 2,2 -2,0 8 5 15 8 NE 996,4 50 0,0
15.09.2019 21:00:00 2,0 -1,8 6 4 13 7 NNE 996,4 50 0,0
15.09.2019 20:00:00 3,0 -1,4 5 3 15 8 NE 996,0 50 0,0
15.09.2019 19:00:00 5,0 -0,2 7 4 18 10 NE 995,5 50 0,0
15.09.2019 18:00:00 6,3 0,8 9 5 23 13 ENE 995,1 50 0,0
15.09.2019 17:00:00 7,1 1,4 14 8 29 16 E 994,9 50 0,0
15.09.2019 16:00:00 7,5 1,1 16 9 29 16 E 994,8 50 0,0
15.09.2019 15:00:00 7,3 2,0 14 7 27 14 E 995,0 50 0,0
15.09.2019 14:00:00 7,8 2,7 9 5 27 15 E 995,2 48 0,0
15.09.2019 13:00:00 6,9 2,8 12 7 26 14 E 995,5 45 0,0
15.09.2019 12:00:00 5,6 2,9 12 6 25 14 E 996,0 34 0,0
15.09.2019 11:00:00 5,5 2,5 13 7 26 14 E 996,4 47 0,0
15.09.2019 10:00:00 5,1 2,3 13 7 24 13 ESE 996,8 50 0,0
15.09.2019 09:00:00 4,2 1,9 9 5 20 11 ESE 997,6 50 0,0
15.09.2019 08:00:00 3,2 1,1 8 4 21 11 E 998,4 50 0,0
15.09.2019 07:00:00 2,9 0,8 8 5 18 10 E 999,2 50 0,0
15.09.2019 06:00:00 2,4 0,1 5 3 16 9 E 1000,3 50 0,0
15.09.2019 05:00:00 2,3 0,0 6 4 15 8 ESE 1001,1 50 0,0
15.09.2019 04:00:00 1,8 -1,1 3 2 11 6 ESE 1001,8 50 0,0
15.09.2019 03:00:00 1,9 -1,4 3 2 10 5 SE 1002,8 50 0,0
15.09.2019 02:00:00 1,3 -1,9 3 2 7 4 SE 1004,1 50 0,0
15.09.2019 01:00:00 1,3 -2,1 3 1 9 5 SE 1004,9 50 0,0
15.09.2019 00:00:00 1,5 -2,1 0 0 6 4 N 1005,2 50 0,0
14.09.2019 23:00:00 1,9 -1,7 0 0 6 3 N 1005,5 50 0,0
14.09.2019 22:00:00 1,4 -1,7 0 0 4 2 N 1006,7 50 0,0
14.09.2019 21:00:00 2,2 -1,6 0 0 4 2 N 1007,2 50 0,0
14.09.2019 20:00:00 2,1 -1,9 0 0 3 2 N 1007,4 31 0,0
14.09.2019 19:00:00 4,2 -1,2 0 0 9 5 N 1007,6 50 0,0
14.09.2019 18:00:00 7,0 -0,5 4 2 10 5 S 1007,7 50 0,0
14.09.2019 17:00:00 7,9 -1,4 4 2 14 7 SSE 1007,9 50 0,0
14.09.2019 16:00:00 10,6 -1,5 7 4 15 8 WSW 1007,7 49 0,0
14.09.2019 15:00:00 8,8 -1,1 3 1 10 5 SW 1008,0 50 0,0
14.09.2019 14:00:00 8,4 -1,4 7 4 19 11 SW 1008,1 50 0,0
14.09.2019 13:00:00 10,0 -0,2 4 2 14 8 WNW 1007,8 45 0,0
14.09.2019 12:00:00 9,7 -1,4 5 3 11 6 SW 1007,9 48 0,0
14.09.2019 11:00:00 7,9 -0,6 0 0 8 4 N 1008,1 43 0,0
14.09.2019 10:00:00 6,0 0,7 4 2 7 4 WSW 1008,3 49 0,0
14.09.2019 09:00:00 4,6 0,0 2 1 7 4 W 1008,4 50 0,0
14.09.2019 08:00:00 2,0 -0,9 2 1 6 4 SW 1008,7 50 0,0
14.09.2019 07:00:00 -0,4 -3,6 0 0 6 3 N 1008,6 50 0,0
14.09.2019 06:00:00 -0,9 -2,6 2 1 10 5 W 1008,5 50 0,0
14.09.2019 05:00:00 0,8 -1,6 5 3 11 6 WNW 1008,1 50 0,0
14.09.2019 04:00:00 1,0 -2,4 0 0 12 7 N 1008,0 50 0,0
14.09.2019 03:00:00 2,4 -0,9 7 4 14 8 NW 1007,4 50 0,0
14.09.2019 02:00:00 1,0 -1,7 0 0 7 4 N 1007,3 50 0,0
14.09.2019 01:00:00 0,4 -2,6 2 1 8 4 WNW 1007,2 50 0,0
14.09.2019 00:00:00 1,1 -2,0 3 2 12 6 W 1006,9 50 0,0
13.09.2019 23:00:00 3,5 -0,9 6 3 16 9 NW 1006,0 50 0,0
13.09.2019 22:00:00 4,4 -0,6 9 5 19 10 NW 1005,3 50 0,0
13.09.2019 21:00:00 4,9 -0,5 8 5 24 13 NW 1004,7 50 0,0
13.09.2019 20:00:00 6,2 -0,1 13 7 29 15 NW 1004,0 50 0,0
13.09.2019 19:00:00 7,6 -0,1 14 8 34 18 NNW 1002,9 50 0,0
13.09.2019 18:00:00 9,5 1,4 13 7 29 15 NW 1001,9 37 0,0
13.09.2019 17:00:00 10,4 1,7 18 10 39 21 NW 1000,8 50 0,0
13.09.2019 16:00:00 10,7 3,0 8 4 15 8 NW 1000,3 50 0,0
13.09.2019 15:00:00 10,0 3,7 8 4 18 10 NNW 1000,2 50 0,1
13.09.2019 14:00:00 9,5 5,9 3 2 22 12 WNW 999,9 47 0,3
13.09.2019 13:00:00 10,4 4,5 6 3 10 6 WNW 999,4 47 0,0
13.09.2019 12:00:00 8,9 5,5 3 2 10 6 WSW 999,1 50 0,0
13.09.2019 11:00:00 7,4 4,5 6 4 11 6 W 999,2 50 0,0
13.09.2019 10:00:00 7,1 4,4 5 3 9 5 W 998,9 49 0,0
13.09.2019 09:00:00 6,0 4,3 4 2 9 5 SW 998,7 49 0,0
13.09.2019 08:00:00 5,3 3,1 0 0 10 6 N 998,5 50 0,0
13.09.2019 07:00:00 3,4 1,6 0 0 7 4 N 998,7 14 0,0
13.09.2019 06:00:00 4,0 2,5 4 2 7 4 WSW 998,4 22 0,0
13.09.2019 05:00:00 3,0 1,4 0 0 3 2 N 998,5 0,8 0,0
13.09.2019 04:00:00 3,4 2,8 2 1 5 3 WSW 998,6 8 0,0
13.09.2019 03:00:00 3,3 2,9 0 0 5 3 N 998,7 3,1 0,0
13.09.2019 02:00:00 4,7 4,1 2 1 6 3 W 998,4 1,2 0,0
13.09.2019 01:00:00 5,0 2,9 0 0 4 2 N 998,3 - 0,0
13.09.2019 00:00:00 5,1 4,4 0 0 9 5 N 998,2 0,7 0,0
12.09.2019 23:00:00 6,1 5,7 3 2 6 3 S 998,1 0,5 0,0
12.09.2019 22:00:00 7,6 7,0 3 2 6 3 SW 997,7 2,7 1,1
12.09.2019 21:00:00 9,3 8,5 4 2 10 6 W 997,7 14 0,2
12.09.2019 20:00:00 7,8 7,2 0 0 5 3 N 997,4 0,4 0,0
12.09.2019 19:00:00 9,1 8,0 3 2 14 8 SSW 997,2 10 0,0
12.09.2019 18:00:00 10,7 9,3 6 3 17 9 WSW 996,5 50 0,0
12.09.2019 17:00:00 11,1 10,0 6 4 19 11 W 996,0 40 0,4
12.09.2019 16:00:00 11,6 10,5 8 5 19 11 SW 995,5 46 0,4
12.09.2019 15:00:00 11,4 10,3 9 5 23 12 SSE 995,7 7 1,5
12.09.2019 14:00:00 11,8 10,4 10 6 24 13 SSE 996,1 14 0,5
12.09.2019 13:00:00 12,2 10,9 11 6 24 13 SSE 996,5 16 0,1
12.09.2019 12:00:00 12,1 11,0 10 6 29 15 S 996,8 27 3,3
12.09.2019 11:00:00 12,3 11,0 10 5 24 13 SSE 997,1 16 0,1

tt = Température de l'air
td = dewpoint
ff = Vitesse du vent
fx = gusts
dd = Direction du vent
ppp = reduced air pressure
vv = visibility
rr = Quantités de précipitations

stations d'obs. à proximité